Regional Weather Roundup
Issued by NWS Upton, NY

Current Version | Previous Version | Graphics & Text | Print | Product List | Glossary Off
Versions: 1 2 3 4 5 6 7 8 9 10 11 12 13 14 15 16 17 18 19 20 21 22 23 24 25 26 27 28 29 30 31 32 33 34 35 36 37 38 39 40 41 42 43 44 45 46 47 48 49 50

000
ASUS41 KOKX 300808
RWROKX

REGIONAL WEATHER ROUNDUP
NATIONAL WEATHER SERVICE NEW YORK NY
400 AM EDT TUE JUN 30 2015

NOTE: "FAIR" INDICATES FEW OR NO CLOUDS BELOW 12,000 FEET WITH NO
SIGNIFICANT WEATHER AND/OR OBSTRUCTIONS TO VISIBILITY.

NYZ071-072-176-178-NJZ106-104-300900-
NEW YORK CITY METRO AREA


CITY           SKY/WX    TMP DP  RH WIND       PRES   REMARKS
CENTRAL PARK   CLEAR     70  57  63 CALM      29.98S
LAGUARDIA APRT PTCLDY    71  57  61 CALM      29.95S
KENNEDY INTL   PTCLDY    67  61  81 SW5       29.96F
NEWARK/LIBERTY MOCLDY    66  58  75 W5        29.95S
BRNX BOT. GARD   N/A     66  57  72 NE2       29.98S
TETERBORO      CLEAR     66  57  72 CALM      29.95S
$$

NYZ177-179-078>081-300900-
LONG ISLAND NEW YORK

CITY           SKY/WX    TMP DP  RH WIND       PRES   REMARKS
FARMINGDALE    CLEAR     66  62  87 CALM      29.96F
ISLIP          CLEAR     67  63  87 S5        29.95S
SHIRLEY        CLEAR     66  63  90 S5        29.97S
WESTHAMPTON    CLEAR     66  64  93 SW3       29.98S
MONTAUK POINT    N/A     69  61  75 SW6       29.99S
$$

NYZ052-065-067-300900-
HUDSON VALLEY

CITY           SKY/WX    TMP DP  RH WIND       PRES   REMARKS
WHITE PLAINS   PTCLDY    62  59  90 CALM      29.96S
NEWBURGH       CLOUDY    64  63  94 CALM      29.96F
MONTGOMERY     CLOUDY    63  61  93 N3        29.95F
POUGHKEEPSIE   CLOUDY    63  59  87 CALM      29.95R
ALBANY         PTCLDY    60  56  86 CALM      29.96S
$$

NJZ001-105-106-008-010-013-015-019>022-104-300900-
NEW JERSEY

CITY           SKY/WX    TMP DP  RH WIND       PRES   REMARKS
NEWARK/LIBERTY MOCLDY    66  58  75 W5        29.95S
TETERBORO      CLEAR     66  57  72 CALM      29.95S
CALDWELL       CLEAR     60  57  89 CALM      29.96F
MORRISTOWN     CLEAR     61  57  88 CALM      29.96F
SOMERVILLE     PTCLDY    58  56  93 CALM      29.93F
SUSSEX         PTCLDY    61  58  90 CALM      29.96S
ANDOVER          N/A     59  58  96 CALM      29.96F
TRENTON        MOCLDY    65  59  81 CALM      29.94F
MILLVILLE      CLEAR     62  60  93 CALM      29.95F
ATLANTIC CITY  CLEAR     62  59  90 CALM      29.95F
WRIGHTSTOWN    CLEAR     59  59  99 CALM      29.93F
TOMS RIVER     CLEAR     57  55  94 CALM      29.96F
BELMAR         CLEAR     64  57  77 S5        29.95F
$$

PAZ047>061-062-071-300900-
EASTERN PENNSYLVANIA

CITY           SKY/WX    TMP DP  RH WIND       PRES   REMARKS
PHILADELPHIA   MOCLDY    69  61  75 S3        29.94F
ALLENTOWN      CLOUDY    62  58  86 NE5       29.94F
SCRANTON       CLOUDY    66  58  75 E5        29.94S
$$

CTZ002-004>006-009-010-012-RIZ004-006-007-MAZ004-011-015-300900-
SOUTHERN NEW ENGLAND
 IN CT

CITY           SKY/WX    TMP DP  RH WIND       PRES   REMARKS
BRADLEY INTL   PTCLDY    57  55  93 NW3       29.96S
HARTFORD       MOCLDY    61  59  93 SE8       29.96S
DANBURY        CLOUDY    64  57  78 CALM      29.97S
WTRBRY/OXFORD  CLOUDY    63  55  77 CALM      29.98S
BRIDGEPORT     PTCLDY    66  61  84 CALM      29.96S
MERIDEN        CLOUDY    62  59  90 CALM      29.96S
NEW HAVEN      PTCLDY    62  59  90 CALM      29.96S
CHESTER        DRIZZLE   63  61  94 S3        29.98S
GROTON         CLEAR     59  57  93 CALM      29.97S
WILLIMANTIC    CLOUDY    57  55  93 CALM      29.98S FOG

 IN RI

CITY           SKY/WX    TMP DP  RH WIND       PRES   REMARKS
PROVIDENCE     CLEAR     61  58  90 CALM      29.98R
BLOCK ISLAND   PTCLDY    64  61  88 SW9       29.98S
WESTERLY       PTCLDY    59  57  93 CALM      29.98R

 IN MA

CITY           SKY/WX    TMP DP  RH WIND       PRES   REMARKS
BOSTON         CLEAR     61  59  93 S6        29.97R
WORCESTER      CLEAR     60  55  83 W6        29.98S
WESTFIELD      PTCLDY    55  54  96 CALM      29.98R
PROVINCETOWN   CLEAR     59   3  10 SW8       29.98R
NANTUCKET      PTCLDY    65  62  90 W8        29.99S
$$

ANZ330-335-338-340-345-350-353-355-300900-
COASTAL MARINE OBSERVATIONS


STATION/POSITION TIME  SKY/WX   TEMP    WIND        PRES    VSBY  WAVE
                                AIR SEA DIR/SP/G                  HT/PER
                 (UTC)          (F)     (DEG/KT/KT) (MB)    (MI)  (FT/S)
NY HARB ENTRANCE 0750            68 68  200/  6/  6 1013.9          2/ 8
4S FIRE IS       0703               66                N/A           3/ 9
20S FIRE ISLAND  0750            67 65  210/  6/  8 1014.4          3/ 8
GREAT SOUTH BAY  0700            69 72  250/ 10/ 12   N/A
23SW MTP         0750            66 65  230/  6/  8 1014.8          4/ 8
HUDSON CANYON    NOT AVBL
KINGS POINT      0700            69 66  190/  4/  5 1013.6
CENTRAL LI SOUND NOT AVBL
EASTERN LI SOUND 0700            65     270/  2/  2   N/A
ROBBINS REEF     0700            70     260/  6/  7 1013.2
$$


>>>>>>>>>>>>>>>>>>>>>>>>>>>> KEY <<<<<<<<<<<<<<<<<<<<<<<<<<<
>                                                          <
>     SKY/WX - SKY CONDITION/PRESENT WEATHER               <
>     TMP    - TEMPERATURE IN FAHRENHEIT                   <
>     DP     - DEWPOINT IN FAHRENHEIT                      <
>     RH     - RELATIVE HUMIDITY IN PERCENT                <
>     WIND   - DIRECTION AND SPEED IN MPH                  <
>     PRES   - MEAN SEA LEVEL PRESSURE IN INCHES OF HG     <
>     WCI    - WIND CHILL INDEX                            <
>     VSB    - VISIBILITY IN MILES                         <
>     HX     - HEAT INDEX                                  <
>     TC     - TEMPERATURE IN CELSIUS                      <
>     VRB    - VARIABLE WIND DIRECTION                     <
>                                                          <
>>>>>>>>>>>>>>>>>>>>>>>>>>>> KEY <<<<<<<<<<<<<<<<<<<<<<<<<<<




USA.gov is the U.S. government's official web portal to all federal, state and local government web resources and services.